Showing default

BRAZILSAT B2, 23536

Orbit data source: Space-Track

BRAZILSAT B2, 23536 is a payload satellite owned by Embratel (BR) in GEO that was launched on Tue, 28 Mar 1995 UTC via an ARIANE 44LP launch vehicle from the French Guiana (FRGUI). Payload-class satellites include a variety of spacecraft equipped with specific instruments for various scientific and technological missions. These include communications satellites like Starlink; space stations such as the ISS; scientific satellites like the Hubble; Earth observation satellites from companies like Planet Labs, Umbra, and HawkEye 360; GPS; miniature CubeSats for education and research; and military/defense satellites.

Not visible in the next 10 days
Identifier
23536, 1995-016A
Orbit
GEO
Last TLE update
1 day ago
Origin
Manufacturer
Hughes
Mission
Non-operational Civil Communications
Bus & Motor
HS-376W, R-4D-11
Mass
1,760 kg wet, 800 kg dry
Launch date (UTC)
1995-03-28 (30 years ago)
Launch vehicle
ARIANE 44LP
Launch site
French Guiana (FRGUI)
Object type
Payload
Rocket body
Debris
Shape & HBR
Cyl, 8.4 m
Radar Cross Section
28.840 m², Large (>1 m²)

Expand to show TLE details & history

TLE from 1 day ago
0 BRAZILSAT B2
1 23536U 95016A   25187.51329493 -.00000141  00000-0  00000-0 0  9996
2 23536  11.5579  34.1854 0002571 150.9761  27.9564  0.99237354110667
Epoch: 2025-07-06T12:19Z
TLE epoch observation values (Epoch: 2025-07-06T12:19:08.681Z)
Latitude
0.21106°
Longitude
103.63972°
Altitude
36,069.019 km
Speed
3.065 km/s
True Right ascension
14h 12m 38s
True Declination
0° 12' 39"
Sunlit
Object was in daylight at epoch
Visualization orbit readout
Latitude
1.48469°
Longitude
97.40402°
Altitude
36,068.482 km
Speed
3.065 km/s
Apparent Right ascension
13h 37m 30s
Apparent Declination
-3° 37' 31"
Sunlit
Object is in daylight
Visualization observer readout
Local Sidereal Time
00:06:56
Azimuth
324.691° NNW
Elevation
-48.332°
Doppler factor
1
Orbital elements
Apogee altitude
36,091.017 km
Perigee altitude
36,069.184 km
Semi-major axis
42,458.238 km
Eccentricity
0.00026
Inclination
11.5579°
RAAN
34.1854°
Arg. of periapsis
150.9761°
True anomaly
Unknown
Mean anomaly
27.9564°
Eccentric anomaly
Unknown
Mean motion
0.24808 °/min
Orbital period
1,451.12 mins
BSTAR
0
Loading historical data...
23536 neighbors
Loading maneuver chart data...
Loading SW <> Apogee altitude chart data...
Loading historical data...
Loading historical data...
Loading historical data...
Loading historical data...
Loading historical data...
Loading historical data...
Loading historical data...
Other satellites on launch #16 in the year 1995 (1995-03-28 UTC)

BRAZILSAT B2 Visibility

Observer location: undefined°, undefined°

BRAZILSAT B2 is likely not visible in the next few days
Span
Click to sort rows by Start time (UTC) header in descending order
Start Az.
Max El. time (UTC)
Max El. Az.
Max El.
End time (UTC)
End Az.
|